Погода в селе Кудиново

Россия / Калужская область     54°59′15″N   36°14′46″E
темп.,
°C
ветер,
м/с
пор.,
м/с
влажн.,
%
обл.,
%
осадки,
мм/ч
давл.,
гПа
погр.,
м
7 мая, пт
пт700:00+5юз41193100 0.0 1009333
03:00+4юз3795100 0.0 1010199
06:00+4юз4992100 0.0 1010304
09:00+8зюз57675 0.0 1011795
12:00+12зюз5844100 0.0 10112591
15:00+13юз684495 0.0 10112312
18:00+13ююз475794 0.0 10111153
21:00+8ююв41171100 0.0 1011211
8 мая, сб
сб800:00+9ю51471100 0.0 1011477
03:00+7юв71591100 2.4 1009969
06:00+7юв81694100 5.8 1006828
09:00+8ююв61394100 10.7 1003921
12:00+8ююв61396100 5.8 1001704
15:00+9ююз3698100 9.8 1000447
18:00+9зюз3593100 0.3 1001404
21:00+7з3598100 1.4 1003232
9 мая, вс
вс900:00+4сз81697100 4.5 1005910
03:00+5сз71291100 9.7 1009798
06:00+4зсз61189100 0.1 1012973
09:00+5сз698191 0.1 1016901
12:00+8сз5865100 0.1 10181637
15:00+11сз7850100 0.1 10202080
18:00+11ссз475795 0.0 1022829
21:00+5зсз33735 0.1 102436
10 мая, пн
пн1000:00+3ссз33735 0.0 102641
03:00+2ссз337211 0.0 102925
06:00+3ссз117128 0.0 103017
09:00+10зсз115443 0.0 1030337
12:00+14зсз12455 0.0 10301292
15:00+15сз23415 0.0 10291580
18:00+15ссв12505 0.0 10291294
21:00+9ссв12665 0.0 103010
11 мая, вт
вт1100:00+7в22790 0.0 103111
03:00+6ссв118046 0.0 103110
06:00+7всв118031 0.0 103221
09:00+13в236271 0.0 1031420
12:00+17в345294 0.0 10301155
15:00+18всв3452100 0.0 10291291
18:00+16в3568100 0.0 1029290
21:00+11вюв2282100 0.0 102913